Location: Blackwater Beach
(38.5801°N, 75.1577°W)
Time: 03:29:40
(UTC+00:00)

Cosmos 2297 Rocket - Pass Details

Date: 18 May 2026
Orbit: 838 x 842 km, 71.0° (Epoch: 9 June)

Event Time Altitude Azimuth Distance (km) Brightness Sun altitude
Exits shadow 04:02:06 58° 33° (NNE) 975 2.6 -30.5°
Drops below altitude 10° 04:06:36 10° 24° (NNE) 2,460 5.2 -30.7°
Sets 04:09:03 0° 24° (NNE) 3,399 6.1 -30.8°
